When you browse on this site, cookies collect data to enhance your experience and personalize the content and advertising you see.
Visit our Privacy Policy to learn more. By continuing to use the site, you agree to this use of cookies and data.
  • In United Kingdom
  • List of Countries
  • For 7 days
  • Water Temperature
  • Weather Map
  • Weather Widgets
  • user-avatar
    Login

    Hourly Weather Akra

    Today, 25 August, Sunday

    Time Temperature Precipitation Wind Pressure Humidity
    00:00 +27°C° 0 mm 3 mps 761 mmHg 84%
    01:00 +26°C° 0.3 mm 3 mps 760 mmHg 85%
    02:00 +26°C° 0.3 mm 4 mps 760 mmHg 85%
    03:00 +26°C° 0.3 mm 4 mps 759 mmHg 85%
    04:00 +26°C° 0 mm 4 mps 760 mmHg 86%
    05:00 +26°C° 0 mm 3 mps 760 mmHg 87%
    06:00 +26°C° 0 mm 3 mps 760 mmHg 88%
    07:00 +27°C° 0.1 mm 4 mps 760 mmHg 82%
    08:00 +28°C° 0.1 mm 4 mps 761 mmHg 76%
    09:00 +29°C° 0.1 mm 5 mps 761 mmHg 71%
    10:00 +30°C° 0 mm 5 mps 761 mmHg 68%
    11:00 +32°C° 0 mm 5 mps 760 mmHg 66%
    12:00 +32°C° 0 mm 5 mps 760 mmHg 66%
    13:00 +32°C° 0.2 mm 6 mps 759 mmHg 66%
    14:00 +32°C° 0.2 mm 6 mps 758 mmHg 67%
    15:00 +32°C° 0.2 mm 6 mps 758 mmHg 67%
    16:00 +30°C° 0.1 mm 6 mps 758 mmHg 71%
    17:00 +29°C° 0.1 mm 6 mps 758 mmHg 75%
    18:00 +28°C° 0.1 mm 5 mps 759 mmHg 79%
    19:00 +27°C° 0 mm 5 mps 759 mmHg 81%
    20:00 +27°C° 0 mm 4 mps 760 mmHg 84%
    21:00 +27°C° 0 mm 4 mps 760 mmHg 86%
    22:00 +26°C° 0 mm 4 mps 760 mmHg 86%
    23:00 +26°C° 0 mm 4 mps 760 mmHg 87%

    Tomorrow, 26 August, Monday

    Time Temperature Precipitation Wind Pressure Humidity
    00:00 +26°C° 0 mm 4 mps 760 mmHg 87%
    01:00 +26°C° 0.1 mm 4 mps 760 mmHg 86%
    02:00 +27°C° 0.1 mm 4 mps 760 mmHg 85%
    03:00 +27°C° 0.1 mm 4 mps 759 mmHg 83%
    04:00 +26°C° 0.1 mm 4 mps 760 mmHg 84%
    05:00 +26°C° 0.1 mm 4 mps 760 mmHg 85%
    06:00 +26°C° 0.1 mm 4 mps 760 mmHg 85%
    07:00 +27°C° 0.1 mm 4 mps 760 mmHg 81%
    08:00 +28°C° 0.1 mm 5 mps 761 mmHg 76%
    09:00 +29°C° 0.1 mm 5 mps 761 mmHg 71%
    10:00 +30°C° 0 mm 5 mps 761 mmHg 68%
    11:00 +30°C° 0 mm 6 mps 760 mmHg 65%
    12:00 +32°C° 0 mm 6 mps 760 mmHg 62%
    13:00 +32°C° 0.1 mm 6 mps 759 mmHg 62%
    14:00 +32°C° 0.1 mm 7 mps 759 mmHg 61%
    15:00 +32°C° 0.1 mm 7 mps 758 mmHg 60%
    16:00 +30°C° 0.1 mm 6 mps 758 mmHg 65%
    17:00 +29°C° 0.1 mm 6 mps 758 mmHg 69%
    18:00 +28°C° 0.1 mm 5 mps 759 mmHg 73%
    19:00 +27°C° 0 mm 5 mps 759 mmHg 76%
    20:00 +27°C° 0 mm 5 mps 759 mmHg 79%
    21:00 +26°C° 0 mm 4 mps 760 mmHg 82%
    22:00 +26°C° 0 mm 4 mps 760 mmHg 83%
    23:00 +26°C° 0 mm 4 mps 760 mmHg 83%

    Day after tomorrow, 27 August, Tuesday

    Time Temperature Precipitation Wind Pressure Humidity
    00:00 +26°C° 0 mm 4 mps 760 mmHg 84%
    01:00 +26°C° 0 mm 4 mps 760 mmHg 84%
    02:00 +26°C° 0 mm 4 mps 759 mmHg 84%
    03:00 +26°C° 0 mm 4 mps 759 mmHg 84%
    04:00 +26°C° 0 mm 4 mps 759 mmHg 84%
    05:00 +26°C° 0 mm 4 mps 760 mmHg 85%
    06:00 +26°C° 0 mm 3 mps 760 mmHg 85%
    07:00 +27°C° 0 mm 4 mps 760 mmHg 82%
    08:00 +27°C° 0 mm 4 mps 761 mmHg 78%
    09:00 +28°C° 0 mm 4 mps 761 mmHg 75%
    10:00 +28°C° 0.1 mm 4 mps 761 mmHg 73%
    11:00 +29°C° 0.1 mm 4 mps 761 mmHg 71%
    12:00 +29°C° 0.1 mm 5 mps 760 mmHg 69%
    13:00 +29°C° 0 mm 5 mps 759 mmHg 69%
    14:00 +29°C° 0 mm 5 mps 759 mmHg 70%
    15:00 +29°C° 0 mm 5 mps 758 mmHg 70%
    16:00 +28°C° 0 mm 5 mps 758 mmHg 73%
    17:00 +28°C° 0 mm 5 mps 759 mmHg 76%
    18:00 +27°C° 0 mm 5 mps 759 mmHg 79%
    19:00 +27°C° 0 mm 4 mps 759 mmHg 81%
    20:00 +26°C° 0 mm 4 mps 760 mmHg 84%
    21:00 +26°C° 0 mm 4 mps 760 mmHg 86%
    22:00 +26°C° 0 mm 4 mps 760 mmHg 86%
    23:00 +26°C° 0 mm 4 mps 760 mmHg 86%

    28 August, Wednesday

    Time Temperature Precipitation Wind Pressure Humidity
    00:00 +26°C° 0 mm 4 mps 760 mmHg 86%
    01:00 +26°C° 0 mm 4 mps 760 mmHg 86%
    02:00 +26°C° 0 mm 4 mps 759 mmHg 85%
    03:00 +26°C° 0 mm 4 mps 759 mmHg 84%
    04:00 +26°C° 0 mm 4 mps 759 mmHg 84%
    05:00 +26°C° 0 mm 4 mps 759 mmHg 84%
    06:00 +26°C° 0 mm 4 mps 759 mmHg 84%
    07:00 +27°C° 0 mm 4 mps 760 mmHg 81%
    08:00 +27°C° 0 mm 4 mps 760 mmHg 77%
    09:00 +28°C° 0 mm 4 mps 761 mmHg 74%
    10:00 +29°C° 0 mm 4 mps 761 mmHg 71%
    11:00 +29°C° 0 mm 4 mps 760 mmHg 69%
    12:00 +30°C° 0 mm 4 mps 760 mmHg 66%
    13:00 +29°C° 0 mm 4 mps 759 mmHg 68%
    14:00 +29°C° 0 mm 5 mps 759 mmHg 70%
    15:00 +29°C° 0 mm 5 mps 758 mmHg 71%
    16:00 +28°C° 0 mm 5 mps 758 mmHg 74%
    17:00 +28°C° 0 mm 5 mps 758 mmHg 76%
    18:00 +27°C° 0 mm 5 mps 758 mmHg 79%
    19:00 +27°C° 0 mm 4 mps 759 mmHg 81%
    20:00 +26°C° 0 mm 4 mps 759 mmHg 83%
    21:00 +26°C° 0 mm 3 mps 760 mmHg 85%
    22:00 +26°C° 0 mm 3 mps 760 mmHg 86%
    23:00 +25°C° 0 mm 3 mps 760 mmHg 86%

    29 August, Thursday

    Time Temperature Precipitation Wind Pressure Humidity
    00:00 +25°C° 0 mm 3 mps 760 mmHg 87%
    01:00 +25°C° 0 mm 3 mps 759 mmHg 87%
    02:00 +25°C° 0 mm 3 mps 759 mmHg 88%
    03:00 +25°C° 0 mm 3 mps 759 mmHg 88%
    04:00 +25°C° 0 mm 3 mps 759 mmHg 89%
    05:00 +25°C° 0 mm 3 mps 759 mmHg 89%
    06:00 +24°C° 0 mm 2 mps 760 mmHg 90%
    07:00 +26°C° 0 mm 3 mps 760 mmHg 83%
    08:00 +27°C° 0 mm 3 mps 760 mmHg 76%
    09:00 +29°C° 0 mm 3 mps 761 mmHg 70%
    10:00 +29°C° 0 mm 3 mps 760 mmHg 67%
    11:00 +30°C° 0 mm 3 mps 760 mmHg 65%
    12:00 +30°C° 0 mm 4 mps 760 mmHg 62%
    13:00 +30°C° 0 mm 4 mps 759 mmHg 63%
    14:00 +30°C° 0 mm 5 mps 758 mmHg 63%
    15:00 +30°C° 0 mm 5 mps 758 mmHg 64%
    16:00 +29°C° 0 mm 5 mps 758 mmHg 68%
    17:00 +28°C° 0 mm 5 mps 758 mmHg 71%
    18:00 +27°C° 0 mm 5 mps 758 mmHg 75%
    19:00 +26°C° 0 mm 4 mps 759 mmHg 78%
    20:00 +26°C° 0 mm 4 mps 759 mmHg 80%
    21:00 +26°C° 0 mm 4 mps 760 mmHg 83%
    22:00 +25°C° 0 mm 3 mps 760 mmHg 84%
    23:00 +25°C° 0 mm 3 mps 760 mmHg 85%

    30 August, Friday

    Time Temperature Precipitation Wind Pressure Humidity
    00:00 +25°C° 0 mm 3 mps 760 mmHg 86%
    01:00 +25°C° 0 mm 3 mps 759 mmHg 87%
    02:00 +25°C° 0 mm 3 mps 759 mmHg 88%
    03:00 +24°C° 0 mm 3 mps 759 mmHg 88%
    04:00 +24°C° 0 mm 3 mps 759 mmHg 89%
    05:00 +24°C° 0 mm 3 mps 760 mmHg 89%
    06:00 +24°C° 0 mm 3 mps 760 mmHg 89%
    07:00 +25°C° 0 mm 3 mps 760 mmHg 83%
    08:00 +27°C° 0 mm 3 mps 761 mmHg 77%
    09:00 +28°C° 0 mm 3 mps 761 mmHg 71%
    10:00 +28°C° 0 mm 4 mps 761 mmHg 68%
    11:00 +29°C° 0 mm 4 mps 760 mmHg 66%
    12:00 +30°C° 0 mm 5 mps 760 mmHg 64%
    13:00 +30°C° 0 mm 5 mps 759 mmHg 64%
    14:00 +30°C° 0 mm 6 mps 759 mmHg 64%
    15:00 +30°C° 0 mm 6 mps 758 mmHg 63%
    16:00 +29°C° 0 mm 6 mps 758 mmHg 66%
    17:00 +28°C° 0 mm 6 mps 758 mmHg 69%
    18:00 +27°C° 0 mm 6 mps 758 mmHg 73%
    19:00 +27°C° 0 mm 5 mps 758 mmHg 74%
    20:00 +26°C° 0 mm 5 mps 759 mmHg 76%
    21:00 +26°C° 0 mm 5 mps 759 mmHg 78%
    22:00 +26°C° 0 mm 5 mps 759 mmHg 79%
    23:00 +25°C° 0 mm 5 mps 759 mmHg 80%
    Show more